Erie, PA

6:54 PM EDT on May 23, 2017 (GMT -0400)
Erie International

Weather History for KERI - March, 2013

Change the Weather History Date:

Saturday, March 2, 2013

  Actual Average Record
Temperature  
Mean Temperature 24 °F 31 °F  
Max Temperature 26 °F 39 °F 70 °F (1991)
Min Temperature 22 °F 23 °F -9 °F (1980)
Degree Days  
Heating Degree Days 41 34  
Month to date heating degree days 77 68  
Since 1 July heating degree days 4171 4433  
Cooling Degree Days 0 0  
Month to date cooling degree days 0 0  
Year to date cooling degree days 0 0  
Moisture  
Dew Point 19 °F    
Average Humidity 81    
Maximum Humidity 88    
Minimum Humidity 74    
Precipitation  
Precipitation T in 0.09 in 1.69 in (1976)
Month to date precipitation 0.01 0.18  
Year to date precipitation 6.52 5.52  
Snow  
Snow 0.20 in 0.50 in - ()
Month to date snowfall 0.5 1.1  
Since 1 July snowfall 79.7 85.1  
Snow Depth T in    
Sea Level Pressure  
Sea Level Pressure 29.98 in    
Wind  
Wind Speed 7 mph (NW)    
Max Wind Speed 14 mph    
Max Gust Speed 20 mph    
Visibility 8 miles    
Events Snow    
T = Trace of Precipitation, MM = Missing Value Source: NWS Daily Summary

Daily Weather History Graph

Daily Weather History Graph

Search for Another Location

Airport or City:

Trip Planner

Search our weather history database for the weather conditions in past years. The results will help you decide how hot, cold, wet, or windy it might be!

Date:

Astronomy

Mar. 02, 2013 Rise Set
Actual Time 6:53 AM EST 6:12 PM EST
Civil Twilight 6:25 AM EST 6:40 PM EST
Nautical Twilight 5:53 AM EST 7:12 PM EST
Astronomical Twilight 5:21 AM EST 7:45 PM EST
Moon 11:56 PM EST (3/2) 9:14 AM EST (3/2)
Length of Visible Light 12h 14m
Length of Day
11h 18m
Waning Gibbous, 74% of the Moon is Illuminated
Mar 2
Waning Gibbous
Mar 4
Last Quarter
Mar 11
New
Mar 19
First Quarter
Mar 27
Full

Hourly Weather History & Observations

Time (EST) Temp. Windchill Dew Point Humidity Pressure Visibility Wind Dir Wind Speed Gust Speed Precip Events Conditions
12:15 AM 24.8 °F 19.1 °F 19.4 °F 80% 29.97 in 10.0 mi NW 4.6 mph - N/A   Overcast
12:51 AM 25.0 °F 16.3 °F 19.0 °F 78% 30.00 in 10.0 mi NW 8.1 mph - N/A   Overcast
1:51 AM 25.0 °F 19.3 °F 19.0 °F 78% 30.00 in 10.0 mi NNW 4.6 mph - N/A   Overcast
1:58 AM 24.8 °F 20.5 °F 19.4 °F 80% 29.97 in 10.0 mi Variable 3.5 mph - N/A   Overcast
2:51 AM 25.0 °F 18.1 °F 18.0 °F 75% 29.99 in 10.0 mi NNW 5.8 mph - N/A   Overcast
3:51 AM 25.0 °F 20.7 °F 18.0 °F 75% 29.98 in 10.0 mi NW 3.5 mph - N/A   Overcast
4:51 AM 25.0 °F 18.1 °F 18.0 °F 75% 29.98 in 10.0 mi NNW 5.8 mph - N/A   Overcast
5:51 AM 25.0 °F 20.7 °F 18.0 °F 75% 29.98 in 10.0 mi NNW 3.5 mph - N/A   Overcast
6:34 AM 24.8 °F 15.3 °F 19.4 °F 80% 29.95 in 10.0 mi NNW 9.2 mph - N/A   Overcast
6:51 AM 24.1 °F 14.4 °F 18.0 °F 77% 29.99 in 10.0 mi NNW 9.2 mph - N/A   Overcast
7:51 AM 24.1 °F 17.0 °F 18.0 °F 77% 30.00 in 10.0 mi NNW 5.8 mph - N/A   Overcast
8:51 AM 23.0 °F 13.1 °F 18.0 °F 81% 30.00 in 8.0 mi NNW 9.2 mph - 0.00 in Snow Light Snow
9:51 AM 23.0 °F 13.9 °F 17.1 °F 78% 30.00 in 9.0 mi North 8.1 mph - N/A   Overcast
10:51 AM 23.0 °F 13.9 °F 17.1 °F 78% 30.01 in 10.0 mi NNW 8.1 mph - N/A   Overcast
11:51 AM 23.0 °F 13.9 °F 17.1 °F 78% 30.01 in 10.0 mi NW 8.1 mph - N/A   Overcast
12:51 PM 23.0 °F 15.8 °F 17.1 °F 78% 30.00 in 10.0 mi NW 5.8 mph - N/A   Overcast
1:51 PM 23.0 °F 14.7 °F 17.1 °F 78% 29.99 in 10.0 mi NW 6.9 mph - N/A   Overcast
2:51 PM 24.1 °F 14.4 °F 18.0 °F 77% 29.97 in 10.0 mi WNW 9.2 mph - N/A   Overcast
3:51 PM 24.1 °F 17.0 °F 19.0 °F 81% 29.97 in 9.0 mi West 5.8 mph - N/A   Overcast
4:23 PM 24.8 °F 17.9 °F 19.4 °F 80% 29.94 in 8.0 mi WNW 5.8 mph - N/A   Overcast
4:51 PM 25.0 °F 18.1 °F 19.9 °F 81% 29.98 in 6.0 mi WNW 5.8 mph - 0.00 in Snow Light Snow
5:01 PM 24.8 °F 16.9 °F 19.4 °F 80% 29.94 in 5.0 mi WNW 6.9 mph - 0.00 in Snow Light Snow
5:22 PM 24.8 °F 17.9 °F 19.4 °F 80% 29.94 in 4.0 mi WNW 5.8 mph - 0.00 in Snow Light Snow
5:29 PM 24.8 °F 16.9 °F 19.4 °F 80% 29.94 in 4.0 mi West 6.9 mph - 0.00 in Snow Light Snow
5:38 PM 24.8 °F 17.9 °F 19.4 °F 80% 29.94 in 4.0 mi West 5.8 mph - N/A Snow Light Snow
5:51 PM 25.0 °F 17.1 °F 19.9 °F 81% 29.98 in 3.0 mi WNW 6.9 mph - 0.00 in Snow Light Snow
6:00 PM 24.8 °F 16.9 °F 19.4 °F 80% 29.94 in 2.5 mi West 6.9 mph - 0.00 in Snow Light Snow
6:08 PM 24.8 °F 17.9 °F 19.4 °F 80% 29.94 in 4.0 mi West 5.8 mph - 0.00 in Snow Light Snow
6:51 PM 25.0 °F 17.1 °F 21.0 °F 85% 29.98 in 6.0 mi WNW 6.9 mph - 0.00 in Snow Light Snow
6:59 PM 24.8 °F 16.9 °F 21.2 °F 86% 29.95 in 5.0 mi WNW 6.9 mph - 0.00 in Snow Light Snow
7:32 PM 26.6 °F 18.2 °F 21.2 °F 80% 29.95 in 7.0 mi WNW 8.1 mph - 0.00 in   Overcast
7:51 PM 26.1 °F 17.6 °F 19.9 °F 78% 29.98 in 7.0 mi WNW 8.1 mph - 0.00 in   Overcast
8:51 PM 26.1 °F 18.4 °F 19.9 °F 78% 29.99 in 9.0 mi NW 6.9 mph - N/A   Overcast
9:12 PM 26.6 °F 16.8 °F 19.4 °F 74% 29.96 in 9.0 mi NW 10.4 mph 19.6 mph N/A   Overcast
9:27 PM 26.6 °F 16.8 °F 19.4 °F 74% 29.96 in 7.0 mi NNW 10.4 mph - N/A   Overcast
9:51 PM 25.0 °F 16.3 °F 19.9 °F 81% 29.99 in 9.0 mi NW 8.1 mph - N/A   Overcast
10:51 PM 25.0 °F 15.5 °F 18.0 °F 75% 29.99 in 10.0 mi North 9.2 mph - 0.00 in   Overcast
11:51 PM 24.1 °F 13.1 °F 18.0 °F 77% 29.99 in 10.0 mi NW 11.5 mph - N/A   Overcast